Location: Cornospital
(48.0620°N, 3.3837°W)
Time: 19:17:15
(UTC+00:00)

FAST Rocket - Pass Details

Date: 17 June 2021
Orbit: 346 x 3317 km, 83.0° (Epoch: 03 August)

Event Time Altitude Azimuth Distance (km) Brightness Sun altitude
Exits shadow 23:38:12 54° 152° (SSE) 551 4.4 -18.1°
Maximum altitude 23:38:45 69° 96° (E) 506 4.5 -18.1°
Drops below altitude 10° 23:42:58 10° 12° (NNE) 2,085 8.8 -18.2°
Sets 23:45:54 0° 11° (N) 3,390 10.2 -18.2°
